Simultaneous Nadir Overpasses (SNOs) Predictions

Prediction of SNOs between AQUA and NOAA-19 Satellite Orbit:

Table of predicted SNOs for the next 14.0 days since TLE Epoch: 8/17/2012
Index Date (AQUA) Time (AQUA) AQUA Lat,Lon Date (NOAA-19) Time (NOAA-19) NOAA-19 Lat,Lon Distance(km) Time Diff (sec)
1 08/18/2012 01:27:28 46.05, 10.51 08/18/2012 01:26:50 45.98, 10.80 23.80 38
2 08/18/2012 02:16:08 -49.00, 179.28 08/18/2012 02:16:58 -48.97, 179.30 3.44 50
3 08/20/2012 06:11:46 46.05, -60.57 08/20/2012 06:11:28 45.98, -60.35 18.31 18
4 08/20/2012 07:00:06 -50.18, 108.70 08/20/2012 07:01:15 -50.18, 108.69 0.75 69
5 08/22/2012 10:56:03 46.10,-131.63 08/22/2012 10:56:04 46.09,-131.46 12.72 1
6 08/22/2012 11:36:22 -77.08, 68.40 08/22/2012 11:37:35 -76.77, 70.18 56.91 73
7 08/24/2012 15:40:02 47.20, 157.71 08/24/2012 15:40:22 47.21, 157.84 9.61 20
8 08/26/2012 19:35:16 -46.02, -81.46 08/26/2012 19:34:18 -45.92, -81.06 32.47 58
9 08/26/2012 20:23:59 48.41, 87.11 08/26/2012 20:24:39 48.37, 87.18 6.91 40
10 08/29/2012 00:19:33 -46.04,-152.53 08/29/2012 00:18:55 -45.95,-152.21 26.81 38
11 08/29/2012 01:07:57 49.55, 16.50 08/29/2012 01:08:56 49.51, 16.53 4.38 59
12 08/31/2012 05:03:50 -46.03, 136.40 08/31/2012 05:03:32 -45.96, 136.65 21.16 18




NCC Satellite Simultaneous Nadir Overpasses (SNOs) Prediction Service
